When you browse on this site, cookies collect data to enhance your experience and personalize the content and advertising you see.
Visit our Privacy Policy to learn more. By continuing to use the site, you agree to this use of cookies and data.
  • In United Kingdom
  • List of Countries
  • For 7 days
  • Water Temperature
  • Weather Map
  • Weather Widgets
  • user-avatar
    Login

    Hourly Weather Gemlik

    Today, 26 August, Monday

    Time Temperature Precipitation Wind Pressure Humidity
    00:00 +25°C° 0 mm 2 mps 754 mmHg 77%
    01:00 +24°C° 0 mm 2 mps 754 mmHg 78%
    02:00 +24°C° 0 mm 2 mps 754 mmHg 80%
    03:00 +24°C° 0 mm 2 mps 754 mmHg 80%
    04:00 +24°C° 0 mm 2 mps 754 mmHg 80%
    05:00 +24°C° 0 mm 2 mps 754 mmHg 81%
    06:00 +25°C° 0 mm 2 mps 754 mmHg 72%
    07:00 +27°C° 0 mm 2 mps 755 mmHg 63%
    08:00 +29°C° 0 mm 3 mps 755 mmHg 54%
    09:00 +31°C° 0 mm 3 mps 755 mmHg 48%
    10:00 +34°C° 0 mm 4 mps 755 mmHg 42%
    11:00 +36°C° 0 mm 5 mps 755 mmHg 35%
    12:00 +36°C° 0 mm 6 mps 754 mmHg 34%
    13:00 +38°C° 0 mm 7 mps 754 mmHg 33%
    14:00 +38°C° 0 mm 8 mps 754 mmHg 32%
    15:00 +37°C° 0 mm 8 mps 754 mmHg 36%
    16:00 +35°C° 0 mm 7 mps 754 mmHg 39%
    17:00 +33°C° 0 mm 7 mps 754 mmHg 43%
    18:00 +30°C° 0 mm 6 mps 754 mmHg 53%
    19:00 +28°C° 0 mm 5 mps 754 mmHg 63%
    20:00 +26°C° 0 mm 3 mps 754 mmHg 74%
    21:00 +25°C° 0 mm 3 mps 754 mmHg 76%
    22:00 +25°C° 0 mm 3 mps 755 mmHg 78%
    23:00 +24°C° 0 mm 3 mps 755 mmHg 80%

    Tomorrow, 27 August, Tuesday

    Time Temperature Precipitation Wind Pressure Humidity
    00:00 +24°C° 0 mm 3 mps 755 mmHg 82%
    01:00 +22°C° 0 mm 3 mps 755 mmHg 83%
    02:00 +22°C° 0 mm 3 mps 754 mmHg 84%
    03:00 +22°C° 0 mm 3 mps 754 mmHg 85%
    04:00 +21°C° 0 mm 3 mps 755 mmHg 86%
    05:00 +21°C° 0 mm 3 mps 755 mmHg 87%
    06:00 +24°C° 0 mm 3 mps 755 mmHg 78%
    07:00 +26°C° 0 mm 3 mps 755 mmHg 70%
    08:00 +27°C° 0 mm 3 mps 755 mmHg 62%
    09:00 +29°C° 0 mm 4 mps 755 mmHg 55%
    10:00 +32°C° 0 mm 5 mps 755 mmHg 47%
    11:00 +34°C° 0 mm 6 mps 755 mmHg 40%
    12:00 +35°C° 0 mm 7 mps 754 mmHg 38%
    13:00 +35°C° 0 mm 7 mps 754 mmHg 36%
    14:00 +37°C° 0 mm 8 mps 754 mmHg 33%
    15:00 +35°C° 0 mm 8 mps 754 mmHg 36%
    16:00 +34°C° 0 mm 8 mps 754 mmHg 38%
    17:00 +33°C° 0 mm 8 mps 754 mmHg 41%
    18:00 +30°C° 0 mm 7 mps 754 mmHg 50%
    19:00 +27°C° 0 mm 6 mps 754 mmHg 59%
    20:00 +25°C° 0 mm 5 mps 755 mmHg 68%
    21:00 +23°C° 0 mm 5 mps 755 mmHg 72%
    22:00 +23°C° 0 mm 4 mps 755 mmHg 75%
    23:00 +22°C° 0 mm 4 mps 755 mmHg 78%

    Day after tomorrow, 28 August, Wednesday

    Time Temperature Precipitation Wind Pressure Humidity
    00:00 +22°C° 0 mm 4 mps 755 mmHg 80%
    01:00 +21°C° 0 mm 4 mps 755 mmHg 81%
    02:00 +21°C° 0 mm 4 mps 754 mmHg 83%
    03:00 +21°C° 0 mm 3 mps 754 mmHg 84%
    04:00 +20°C° 0 mm 3 mps 754 mmHg 85%
    05:00 +20°C° 0 mm 3 mps 754 mmHg 86%
    06:00 +22°C° 0 mm 3 mps 754 mmHg 77%
    07:00 +25°C° 0 mm 3 mps 754 mmHg 68%
    08:00 +27°C° 0 mm 3 mps 754 mmHg 59%
    09:00 +28°C° 0 mm 4 mps 754 mmHg 51%
    10:00 +30°C° 0 mm 5 mps 754 mmHg 43%
    11:00 +33°C° 0 mm 6 mps 754 mmHg 36%
    12:00 +34°C° 0 mm 7 mps 753 mmHg 35%
    13:00 +34°C° 0 mm 7 mps 753 mmHg 34%
    14:00 +35°C° 0 mm 8 mps 753 mmHg 33%
    15:00 +34°C° 0 mm 8 mps 753 mmHg 38%
    16:00 +32°C° 0 mm 7 mps 753 mmHg 42%
    17:00 +30°C° 0 mm 7 mps 753 mmHg 47%
    18:00 +28°C° 0 mm 6 mps 753 mmHg 58%
    19:00 +26°C° 0 mm 5 mps 753 mmHg 68%
    20:00 +23°C° 0 mm 4 mps 753 mmHg 79%
    21:00 +22°C° 0 mm 4 mps 754 mmHg 82%
    22:00 +22°C° 0 mm 4 mps 754 mmHg 85%
    23:00 +21°C° 0 mm 4 mps 754 mmHg 88%

    29 August, Thursday

    Time Temperature Precipitation Wind Pressure Humidity
    00:00 +21°C° 0 mm 3 mps 753 mmHg 89%
    01:00 +21°C° 0 mm 3 mps 753 mmHg 89%
    02:00 +20°C° 0 mm 3 mps 753 mmHg 89%
    03:00 +20°C° 0 mm 3 mps 753 mmHg 89%
    04:00 +20°C° 0 mm 3 mps 753 mmHg 89%
    05:00 +20°C° 0 mm 3 mps 753 mmHg 90%
    06:00 +21°C° 0 mm 3 mps 753 mmHg 83%
    07:00 +24°C° 0 mm 3 mps 753 mmHg 76%
    08:00 +26°C° 0 mm 3 mps 753 mmHg 70%
    09:00 +28°C° 0 mm 4 mps 753 mmHg 62%
    10:00 +29°C° 0 mm 5 mps 753 mmHg 54%
    11:00 +32°C° 0 mm 5 mps 753 mmHg 47%
    12:00 +33°C° 0 mm 6 mps 753 mmHg 44%
    13:00 +33°C° 0 mm 7 mps 752 mmHg 41%
    14:00 +34°C° 0 mm 7 mps 752 mmHg 39%
    15:00 +33°C° 0 mm 7 mps 752 mmHg 43%
    16:00 +32°C° 0 mm 7 mps 752 mmHg 47%
    17:00 +29°C° 0 mm 7 mps 752 mmHg 51%
    18:00 +27°C° 0 mm 6 mps 752 mmHg 61%
    19:00 +25°C° 0 mm 5 mps 753 mmHg 71%
    20:00 +22°C° 0 mm 5 mps 753 mmHg 81%
    21:00 +22°C° 0 mm 4 mps 753 mmHg 84%
    22:00 +21°C° 0 mm 4 mps 753 mmHg 87%
    23:00 +20°C° 0 mm 4 mps 753 mmHg 90%

    30 August, Friday

    Time Temperature Precipitation Wind Pressure Humidity
    00:00 +20°C° 0 mm 4 mps 753 mmHg 91%
    01:00 +20°C° 0 mm 3 mps 753 mmHg 91%
    02:00 +19°C° 0 mm 3 mps 753 mmHg 92%
    03:00 +19°C° 0 mm 3 mps 753 mmHg 91%
    04:00 +19°C° 0 mm 3 mps 753 mmHg 91%
    05:00 +19°C° 0 mm 3 mps 753 mmHg 91%
    06:00 +20°C° 0 mm 3 mps 754 mmHg 83%
    07:00 +22°C° 0 mm 3 mps 754 mmHg 76%
    08:00 +24°C° 0 mm 3 mps 754 mmHg 68%
    09:00 +26°C° 0 mm 4 mps 754 mmHg 60%
    10:00 +28°C° 0 mm 4 mps 754 mmHg 51%
    11:00 +30°C° 0 mm 5 mps 754 mmHg 43%
    12:00 +30°C° 0 mm 5 mps 754 mmHg 42%
    13:00 +30°C° 0 mm 6 mps 753 mmHg 41%
    14:00 +32°C° 0 mm 7 mps 753 mmHg 40%
    15:00 +30°C° 0 mm 7 mps 753 mmHg 44%
    16:00 +29°C° 0 mm 7 mps 753 mmHg 47%
    17:00 +28°C° 0 mm 7 mps 753 mmHg 51%
    18:00 +26°C° 0 mm 6 mps 754 mmHg 60%
    19:00 +23°C° 0 mm 5 mps 754 mmHg 70%
    20:00 +21°C° 0 mm 4 mps 754 mmHg 80%
    21:00 +20°C° 0 mm 4 mps 755 mmHg 82%
    22:00 +19°C° 0 mm 4 mps 755 mmHg 84%
    23:00 +19°C° 0 mm 4 mps 755 mmHg 86%

    31 August, Saturday

    Time Temperature Precipitation Wind Pressure Humidity
    00:00 +18°C° 0 mm 4 mps 755 mmHg 87%
    01:00 +18°C° 0 mm 3 mps 754 mmHg 88%
    02:00 +18°C° 0 mm 3 mps 754 mmHg 89%
    03:00 +17°C° 0 mm 3 mps 754 mmHg 89%
    04:00 +17°C° 0 mm 3 mps 754 mmHg 89%
    05:00 +17°C° 0 mm 3 mps 754 mmHg 90%
    06:00 +19°C° 0 mm 4 mps 754 mmHg 82%
    07:00 +20°C° 0 mm 4 mps 754 mmHg 73%
    08:00 +22°C° 0 mm 4 mps 755 mmHg 65%
    09:00 +25°C° 0 mm 5 mps 755 mmHg 57%
    10:00 +27°C° 0 mm 5 mps 754 mmHg 49%
    11:00 +28°C° 0 mm 6 mps 754 mmHg 41%
    12:00 +29°C° 0 mm 6 mps 754 mmHg 41%
    13:00 +30°C° 0 mm 7 mps 754 mmHg 41%
    14:00 +31°C° 0 mm 8 mps 754 mmHg 40%
    15:00 +29°C° 0 mm 8 mps 754 mmHg 43%
    16:00 +28°C° 0 mm 8 mps 754 mmHg 46%
    17:00 +27°C° 0 mm 8 mps 754 mmHg 49%
    18:00 +24°C° 0 mm 7 mps 754 mmHg 57%
    19:00 +22°C° 0 mm 6 mps 755 mmHg 64%
    20:00 +20°C° 0 mm 6 mps 755 mmHg 71%
    21:00 +19°C° 0 mm 5 mps 755 mmHg 74%
    22:00 +19°C° 0 mm 5 mps 755 mmHg 78%
    23:00 +18°C° 0 mm 4 mps 755 mmHg 81%
    Show more